Regional Weather Roundup
Issued by NWS

Home | Current Version | Previous Version | Graphics & Text | Print | Product List | Glossary On
Versions: 1 2 3 4 5 6 7 8 9 10 11 12 13 14 15 16 17 18 19 20 21 22 23 24 25 26 27 28 29 30 31 32 33 34 35 36 37 38 39 40 41 42 43 44 45 46 47 48 49 50
000
ASUS45 KSLC 131010
RWRUT

UTAH REGIONAL WEATHER ROUNDUP
NATIONAL WEATHER SERVICE SALT LAKE CITY UT
300 AM MST SAT FEB 13 2016

UTZ001>011-023>025-131100-

NORTHERN UTAH

CITY           SKY/WX    TMP DP  RH WIND       PRES   REMARKS
BRIGHAM CITY   CLOUDY    26  24  93 CALM      30.31F
HILL AFB       FOG       27  27 100 E6        30.27F VSB 3/4 WCI  20
LOGAN          FOG       22  22 100 E5        30.28S VSB 1/2 WCI  16
OGDEN          FOG       26  26 100 N5        30.29S VSB 1/4 WCI  20
PROVO AIRPORT    N/A     21  19  93 E3        30.30F VSB<1/4
SALT LAKE CITY CLOUDY    29  28  96 SW3       30.29F FOG
VERNAL         CLOUDY    19  16  88 CALM      30.28F FOG
WENDOVER       CLOUDY    28  25  86 S3        30.29F
HEBER CITY     PTCLDY    10   9  92 CALM      30.24F FOG
WEST JORDAN    CLOUDY    28  28 100 CALM      30.29F

$$

UTZ012>022-026-027-131100-

SOUTHERN/CENTRAL UTAH

CITY           SKY/WX    TMP DP  RH WIND       PRES   REMARKS
BLANDING       MOCLDY    32  21  63 N3        30.37S
BRYCE CANYON   PTCLDY    12   6  77 W6        30.34F WCI   3
CEDAR CITY     PTCLDY    24  18  77 CALM      30.25S
DELTA          CLOUDY    15  14  95 CALM      30.29F VSB<1/4
HANKSVILLE     MOCLDY    28  28 100 CALM      30.31F
MILFORD        FOG        6   3  87 S7        30.26F VSB 1/4 WCI  -6
MOAB/CYNLANDS  MOCLDY    30  27  88 CALM      30.27F
PRICE          PTCLDY    26  21  81 SE3       30.27F
ST GEORGE      MOSUNNY   41  25  52 CALM      30.23S
KANAB          PTCLDY    34  28  80 NE6       30.30F WCI  29

$$

REGIONAL REPORTS     COLORADO/ARIZONA

CITY           SKY/WX    TMP DP  RH WIND       PRES   REMARKS
CRAIG, CO      CLOUDY    10   5  80 CALM      30.27S
GRAND JUNCTION CLOUDY    26  24  92 E3        30.29F
RIFLE          CLOUDY    23  17  78 CALM      30.31F
MONTROSE       CLOUDY    27  22  81 S8        30.31F WCI  19
CORTEZ         CLOUDY    23  19  85 NE6       30.31F WCI  16
PAGE, AZ       MOCLDY    37  30  75 CALM      30.26F
GRAND CANYON   PTCLDY    25  20  81 E3        30.32F
KINGMAN        CLEAR     41  22  46 CALM      30.17F
FLAGSTAFF      PTCLDY    25  19  78 CALM      30.33F

$$

REGIONAL REPORTS    NEVADA/IDAHO/WYOMING

CITY           SKY/WX    TMP DP  RH WIND       PRES   REMARKS
LAS VEGAS, NV  PTCLDY    51  22  31 SW3       30.11F
ELY            MOCLDY    24  15  68 S18       30.29S WCI  10
ELKO           CLOUDY    18  14  84 E8        30.29R WCI   8
POCATELLO, ID  CLOUDY    28  25  88 CALM      30.18F
BURLEY         CLOUDY    31  28  89 CALM      30.17R
EVANSTON, WY   CLOUDY    33  13  43 SW9       30.23F WCI  25
ROCK SPRINGS   CLOUDY    33  20  58 SW10      30.20F WCI  25

$$



USA.gov is the U.S. government's official web portal to all federal, state and local government web resources and services.